Midland Airpark, TX

12:40 AM CDT on March 24, 2017 (GMT -0500)
Midland

Weather History for KMDD - November, 2012

Change the Weather History Date:

Tuesday, November 6, 2012

  Actual Average (KMAF) Record (KMAF)
Temperature  
Mean Temperature 62 °F -  
Max Temperature 79 °F 65 °F 84 °F (1977)
Min Temperature 45 °F 42 °F 21 °F (1959)
Degree Days  
Heating Degree Days 3    
Growing Degree Days 12 (Base 50)    
Moisture  
Dew Point 37 °F    
Average Humidity 42    
Maximum Humidity 69    
Minimum Humidity 19    
Precipitation  
Precipitation 0.00 in - - ()
Sea Level Pressure  
Sea Level Pressure 30.17 in    
Wind  
Wind Speed 2 mph (South)    
Max Wind Speed 9 mph    
Max Gust Speed -    
Visibility 10 miles    
Events      
Averages and records for this station are not official NWS values.
T = Trace of Precipitation, MM = Missing Value Source: NWS Daily Summary

Daily Weather History Graph

Daily Weather History Graph

Search for Another Location

Airport or City:

Trip Planner

Search our weather history database for the weather conditions in past years. The results will help you decide how hot, cold, wet, or windy it might be!

Date:

Astronomy

Nov. 06, 2012 Rise Set
Actual Time 7:09 AM CST 5:53 PM CST
Civil Twilight 6:44 AM CST 6:19 PM CST
Nautical Twilight 6:15 AM CST 6:48 PM CST
Astronomical Twilight 5:46 AM CST 7:17 PM CST
Moon No Moon Rise 1:06 PM CST (11/6)
Length of Visible Light 11h 35m
Length of Day
10h 44m
Waning Gibbous, 53% of the Moon is Illuminated
Nov 6
Waning Gibbous
Nov 6
Last Quarter
Nov 13
New
Nov 20
First Quarter
Nov 28
Full

Hourly Weather History & Observations

Time (CST) Temp. Windchill Dew Point Humidity Pressure Visibility Wind Dir Wind Speed Gust Speed Precip Events Conditions
12:15 AM 52.3 °F - 39.2 °F 61% 30.18 in 10.0 mi Calm Calm - N/A   Clear
12:35 AM 51.4 °F - 39.2 °F 63% 30.19 in 10.0 mi Calm Calm - N/A   Clear
12:55 AM 50.7 °F - 38.1 °F 62% 30.19 in 10.0 mi Calm Calm - N/A   Clear
1:15 AM 52.0 °F - 37.9 °F 59% 30.18 in 10.0 mi Calm Calm - N/A   Clear
1:35 AM 51.8 °F - 38.1 °F 60% 30.17 in 10.0 mi SSW 3.5 mph - N/A   Clear
1:55 AM 53.1 °F - 37.4 °F 55% 30.17 in 10.0 mi Calm Calm - N/A   Clear
2:15 AM 53.6 °F - 36.7 °F 53% 30.17 in 10.0 mi Calm Calm - N/A   Clear
2:35 AM 52.9 °F - 36.7 °F 54% 30.17 in 10.0 mi Calm Calm - N/A   Clear
2:55 AM 53.2 °F - 36.1 °F 52% 30.17 in 10.0 mi Calm Calm - N/A   Clear
3:15 AM 53.4 °F - 35.8 °F 51% 30.17 in 10.0 mi Calm Calm - N/A   Clear
3:35 AM 53.6 °F - 35.6 °F 51% 30.16 in 10.0 mi Calm Calm - N/A   Clear
3:55 AM 53.6 °F - 35.4 °F 50% 30.16 in 10.0 mi Calm Calm - N/A   Clear
4:15 AM 52.7 °F - 35.8 °F 53% 30.15 in 10.0 mi WSW 3.5 mph - N/A   Clear
4:35 AM 49.1 °F - 36.5 °F 62% 30.16 in 10.0 mi WNW 3.5 mph - N/A   Clear
4:55 AM 46.4 °F 45.2 °F 36.3 °F 68% 30.17 in 10.0 mi NW 3.5 mph - N/A   Clear
5:15 AM 45.7 °F - 36.0 °F 69% 30.17 in 10.0 mi Calm Calm - N/A   Clear
5:35 AM 45.9 °F - 35.8 °F 68% 30.16 in 10.0 mi Calm Calm - N/A   Clear
5:55 AM 46.2 °F - 35.8 °F 67% 30.17 in 10.0 mi Calm Calm - N/A   Clear
6:15 AM 46.0 °F - 36.1 °F 68% 30.17 in 10.0 mi Calm Calm - N/A   Clear
6:35 AM 46.4 °F 45.2 °F 36.5 °F 68% 30.18 in 10.0 mi WNW 3.5 mph - N/A   Clear
6:55 AM 46.4 °F 45.2 °F 36.5 °F 68% 30.18 in 10.0 mi West 3.5 mph - N/A   Clear
7:15 AM 46.4 °F - 36.5 °F 68% 30.18 in 10.0 mi Calm Calm - N/A   Clear
7:35 AM 46.9 °F - 36.5 °F 67% 30.19 in 10.0 mi Calm Calm - N/A   Clear
7:55 AM 47.8 °F - 36.9 °F 66% 30.19 in 10.0 mi Calm Calm - N/A   Clear
8:15 AM 50.0 °F - 37.6 °F 62% 30.20 in 10.0 mi Calm Calm - N/A   Clear
8:35 AM 52.7 °F - 37.9 °F 57% 30.21 in 10.0 mi Calm Calm - N/A   Clear
8:55 AM 55.9 °F - 38.7 °F 52% 30.22 in 10.0 mi Calm Calm - N/A   Clear
9:15 AM 58.5 °F - 39.0 °F 48% 30.22 in 10.0 mi Calm Calm - N/A   Clear
9:35 AM 61.5 °F - 39.6 °F 44% 30.22 in 10.0 mi Calm Calm - N/A   Clear
9:55 AM 65.5 °F - 38.3 °F 37% 30.21 in 10.0 mi South 9.2 mph - N/A   Clear
10:15 AM 67.5 °F - 37.9 °F 34% 30.22 in 10.0 mi South 8.1 mph - N/A   Clear
10:35 AM 68.2 °F - 38.3 °F 33% 30.22 in 10.0 mi South 9.2 mph - N/A   Clear
10:55 AM 69.6 °F - 38.8 °F 33% 30.22 in 10.0 mi South 6.9 mph - N/A   Clear
11:15 AM 71.6 °F - 39.2 °F 31% 30.22 in 10.0 mi South 6.9 mph - N/A   Clear
11:35 AM 72.5 °F - 39.6 °F 30% 30.21 in 10.0 mi South 6.9 mph - N/A   Clear
11:55 AM 73.2 °F - 39.9 °F 30% 30.21 in 10.0 mi SW 6.9 mph - N/A   Clear
12:15 PM 74.1 °F - 39.7 °F 29% 30.20 in 10.0 mi South 8.1 mph - N/A   Clear
12:35 PM 74.8 °F - 38.8 °F 27% 30.19 in 10.0 mi South 8.1 mph - N/A   Clear
12:55 PM 75.6 °F - 38.5 °F 26% 30.19 in 10.0 mi SSW 6.9 mph - N/A   Clear
1:15 PM 76.1 °F - 37.8 °F 25% 30.18 in 10.0 mi South 6.9 mph - N/A   Clear
1:35 PM 76.6 °F - 37.0 °F 24% 30.17 in 10.0 mi WSW 3.5 mph - N/A   Clear
1:55 PM 77.4 °F - 36.1 °F 23% 30.15 in 10.0 mi SSW 6.9 mph - N/A   Clear
2:15 PM 77.9 °F - 36.3 °F 22% 30.15 in 10.0 mi SSW 4.6 mph - N/A   Clear
2:35 PM 78.3 °F - 36.1 °F 22% 30.14 in 10.0 mi South 4.6 mph - N/A   Clear
2:55 PM 79.0 °F - 35.1 °F 20% 30.14 in 10.0 mi ESE 5.8 mph - N/A   Clear
3:15 PM 79.5 °F - 34.3 °F 20% 30.14 in 10.0 mi SSE 8.1 mph - N/A   Clear
3:35 PM 79.3 °F - 34.3 °F 20% 30.13 in 10.0 mi SSW 6.9 mph - N/A   Clear
3:55 PM 79.3 °F - 33.8 °F 19% 30.13 in 10.0 mi SSE 5.8 mph - N/A   Clear
4:15 PM 79.2 °F - 33.6 °F 19% 30.13 in 10.0 mi South 4.6 mph - N/A   Clear
4:35 PM 79.2 °F - 34.3 °F 20% 30.13 in 10.0 mi South 4.6 mph - N/A   Clear
4:55 PM 78.8 °F - 34.3 °F 20% 30.13 in 10.0 mi South 5.8 mph - N/A   Clear
5:15 PM 77.9 °F - 34.7 °F 21% 30.13 in 10.0 mi South 3.5 mph - N/A   Clear
5:35 PM 77.4 °F - 34.2 °F 21% 30.13 in 10.0 mi SE 4.6 mph - N/A   Clear
5:55 PM 75.7 °F - 34.0 °F 22% 30.13 in 10.0 mi SE 4.6 mph - N/A   Clear
6:15 PM 74.7 °F - 34.0 °F 23% 30.14 in 10.0 mi ESE 3.5 mph - N/A   Clear
6:35 PM 73.9 °F - 34.7 °F 24% 30.14 in 10.0 mi ESE 3.5 mph - N/A   Clear
6:55 PM 72.3 °F - 35.4 °F 26% 30.14 in 10.0 mi ESE 4.6 mph - N/A   Clear
7:15 PM 70.3 °F - 36.5 °F 29% 30.15 in 10.0 mi SE 3.5 mph - N/A   Clear
7:35 PM 69.1 °F - 37.0 °F 31% 30.15 in 7.0 mi ESE 3.5 mph - N/A   Clear
7:55 PM 67.6 °F - 37.6 °F 33% 30.16 in 10.0 mi SE 4.6 mph - N/A   Clear
8:15 PM 67.1 °F - 37.8 °F 34% 30.16 in 10.0 mi ESE 3.5 mph - N/A   Clear
8:35 PM 66.4 °F - 38.1 °F 35% 30.16 in 10.0 mi ESE 3.5 mph - N/A   Clear
8:55 PM 65.8 °F - 38.5 °F 37% 30.17 in 10.0 mi SE 4.6 mph - N/A   Clear
9:15 PM 65.1 °F - 38.5 °F 37% 30.18 in 10.0 mi SE 4.6 mph - N/A   Clear
9:35 PM 64.0 °F - 38.8 °F 39% 30.18 in 10.0 mi SE 5.8 mph - N/A   Clear
9:55 PM 63.3 °F - 38.7 °F 40% 30.18 in 10.0 mi SE 5.8 mph - N/A   Clear
10:15 PM 62.4 °F - 38.7 °F 41% 30.19 in 10.0 mi SE 4.6 mph - N/A   Clear
10:35 PM 61.9 °F - 38.8 °F 43% 30.19 in 10.0 mi SE 4.6 mph - N/A   Clear
10:55 PM 60.8 °F - 39.0 °F 45% 30.19 in 10.0 mi SSE 4.6 mph - N/A   Clear
11:15 PM 60.3 °F - 39.2 °F 46% 30.19 in 10.0 mi SSE 3.5 mph - N/A   Clear
11:35 PM 60.4 °F - 39.2 °F 45% 30.19 in 10.0 mi SSE 3.5 mph - N/A   Clear
11:55 PM 58.8 °F - 39.4 °F 49% 30.19 in 10.0 mi South 3.5 mph - N/A   Clear